Index of /20260429/WXO-DD/model_gdps/15km/12/006
Name Last modified Size Description
Parent Directory -
20260429T12Z_MSC_GDPS_AbsoluteVorticity_IsbL-0200_LatLon0.15_PT006H.grib2 2026-04-29 15:56 1.3M
20260429T12Z_MSC_GDPS_AbsoluteVorticity_IsbL-0250_LatLon0.15_PT006H.grib2 2026-04-29 15:56 1.3M
20260429T12Z_MSC_GDPS_AbsoluteVorticity_IsbL-0500_LatLon0.15_PT006H.grib2 2026-04-29 15:56 1.2M
20260429T12Z_MSC_GDPS_AbsoluteVorticity_IsbL-0700_LatLon0.15_PT006H.grib2 2026-04-29 15:56 1.3M
20260429T12Z_MSC_GDPS_AbsoluteVorticity_IsbL-0850_LatLon0.15_PT006H.grib2 2026-04-29 15:56 1.6M
20260429T12Z_MSC_GDPS_AirTemp-Max_AGL-2m_LatLon0.15_PT006H.grib2 2026-04-29 15:56 733K
20260429T12Z_MSC_GDPS_AirTemp-Min_AGL-2m_LatLon0.15_PT006H.grib2 2026-04-29 15:56 791K
20260429T12Z_MSC_GDPS_AirTemp_AGL-120m_LatLon0.15_PT006H.grib2 2026-04-29 15:56 911K
20260429T12Z_MSC_GDPS_AirTemp_AGL-2m_LatLon0.15_PT006H.grib2 2026-04-29 15:56 1.0M
20260429T12Z_MSC_GDPS_AirTemp_AGL-40m_LatLon0.15_PT006H.grib2 2026-04-29 15:56 813K
20260429T12Z_MSC_GDPS_AirTemp_AGL-80m_LatLon0.15_PT006H.grib2 2026-04-29 15:56 919K
20260429T12Z_MSC_GDPS_AirTemp_IsbL-0001_LatLon0.15_PT006H.grib2 2026-04-29 15:56 659K
20260429T12Z_MSC_GDPS_AirTemp_IsbL-0005_LatLon0.15_PT006H.grib2 2026-04-29 15:56 694K
20260429T12Z_MSC_GDPS_AirTemp_IsbL-0010_LatLon0.15_PT006H.grib2 2026-04-29 15:56 769K
20260429T12Z_MSC_GDPS_AirTemp_IsbL-0020_LatLon0.15_PT006H.grib2 2026-04-29 15:56 793K
20260429T12Z_MSC_GDPS_AirTemp_IsbL-0030_LatLon0.15_PT006H.grib2 2026-04-29 15:56 759K
20260429T12Z_MSC_GDPS_AirTemp_IsbL-0050_LatLon0.15_PT006H.grib2 2026-04-29 15:56 813K
20260429T12Z_MSC_GDPS_AirTemp_IsbL-0100_LatLon0.15_PT006H.grib2 2026-04-29 15:56 962K
20260429T12Z_MSC_GDPS_AirTemp_IsbL-0150_LatLon0.15_PT006H.grib2 2026-04-29 15:56 1.0M
20260429T12Z_MSC_GDPS_AirTemp_IsbL-0175_LatLon0.15_PT006H.grib2 2026-04-29 15:56 967K
20260429T12Z_MSC_GDPS_AirTemp_IsbL-0200_LatLon0.15_PT006H.grib2 2026-04-29 15:56 1.0M
20260429T12Z_MSC_GDPS_AirTemp_IsbL-0225_LatLon0.15_PT006H.grib2 2026-04-29 15:56 1.0M
20260429T12Z_MSC_GDPS_AirTemp_IsbL-0250_LatLon0.15_PT006H.grib2 2026-04-29 15:56 1.0M
20260429T12Z_MSC_GDPS_AirTemp_IsbL-0275_LatLon0.15_PT006H.grib2 2026-04-29 15:56 1.0M
20260429T12Z_MSC_GDPS_AirTemp_IsbL-0300_LatLon0.15_PT006H.grib2 2026-04-29 15:56 1.0M
20260429T12Z_MSC_GDPS_AirTemp_IsbL-0350_LatLon0.15_PT006H.grib2 2026-04-29 15:56 940K
20260429T12Z_MSC_GDPS_AirTemp_IsbL-0400_LatLon0.15_PT006H.grib2 2026-04-29 15:56 948K
20260429T12Z_MSC_GDPS_AirTemp_IsbL-0450_LatLon0.15_PT006H.grib2 2026-04-29 15:56 971K
20260429T12Z_MSC_GDPS_AirTemp_IsbL-0500_LatLon0.15_PT006H.grib2 2026-04-29 15:56 1.0M
20260429T12Z_MSC_GDPS_AirTemp_IsbL-0550_LatLon0.15_PT006H.grib2 2026-04-29 15:56 812K
20260429T12Z_MSC_GDPS_AirTemp_IsbL-0600_LatLon0.15_PT006H.grib2 2026-04-29 15:56 909K
20260429T12Z_MSC_GDPS_AirTemp_IsbL-0650_LatLon0.15_PT006H.grib2 2026-04-29 15:56 933K
20260429T12Z_MSC_GDPS_AirTemp_IsbL-0700_LatLon0.15_PT006H.grib2 2026-04-29 15:56 965K
20260429T12Z_MSC_GDPS_AirTemp_IsbL-0750_LatLon0.15_PT006H.grib2 2026-04-29 15:56 1.0M
20260429T12Z_MSC_GDPS_AirTemp_IsbL-0800_LatLon0.15_PT006H.grib2 2026-04-29 15:56 1.1M
20260429T12Z_MSC_GDPS_AirTemp_IsbL-0850_LatLon0.15_PT006H.grib2 2026-04-29 15:56 1.1M
20260429T12Z_MSC_GDPS_AirTemp_IsbL-0875_LatLon0.15_PT006H.grib2 2026-04-29 15:56 1.2M
20260429T12Z_MSC_GDPS_AirTemp_IsbL-0900_LatLon0.15_PT006H.grib2 2026-04-29 15:56 1.1M
20260429T12Z_MSC_GDPS_AirTemp_IsbL-0925_LatLon0.15_PT006H.grib2 2026-04-29 15:56 1.1M
20260429T12Z_MSC_GDPS_AirTemp_IsbL-0950_LatLon0.15_PT006H.grib2 2026-04-29 15:56 1.2M
20260429T12Z_MSC_GDPS_AirTemp_IsbL-0970_LatLon0.15_PT006H.grib2 2026-04-29 15:56 1.2M
20260429T12Z_MSC_GDPS_AirTemp_IsbL-0985_LatLon0.15_PT006H.grib2 2026-04-29 15:56 1.2M
20260429T12Z_MSC_GDPS_AirTemp_IsbL-1000_LatLon0.15_PT006H.grib2 2026-04-29 15:56 1.1M
20260429T12Z_MSC_GDPS_AirTemp_IsbL-1015_LatLon0.15_PT006H.grib2 2026-04-29 15:56 1.1M
20260429T12Z_MSC_GDPS_Albedo_Sfc_LatLon0.15_PT006H.grib2 2026-04-29 15:56 245K
20260429T12Z_MSC_GDPS_CAPE_Sfc_LatLon0.15_PT006H.grib2 2026-04-29 15:56 3.9M
20260429T12Z_MSC_GDPS_CIN_Sfc_LatLon0.15_PT006H.grib2 2026-04-29 15:56 2.9M
20260429T12Z_MSC_GDPS_CloudWater_EAtm_LatLon0.15_PT006H.grib2 2026-04-29 15:56 531K
20260429T12Z_MSC_GDPS_ConvectivePrecip-Accum_Sfc_LatLon0.15_PT006H.grib2 2026-04-29 15:56 1.7M
20260429T12Z_MSC_GDPS_DewPointDepression_AGL-2m_LatLon0.15_PT006H.grib2 2026-04-29 15:56 767K
20260429T12Z_MSC_GDPS_DewPointDepression_IsbL-0010_LatLon0.15_PT006H.grib2 2026-04-29 15:56 76K
20260429T12Z_MSC_GDPS_DewPointDepression_IsbL-0020_LatLon0.15_PT006H.grib2 2026-04-29 15:56 92K
20260429T12Z_MSC_GDPS_DewPointDepression_IsbL-0030_LatLon0.15_PT006H.grib2 2026-04-29 15:56 73K
20260429T12Z_MSC_GDPS_DewPointDepression_IsbL-0050_LatLon0.15_PT006H.grib2 2026-04-29 15:56 366K
20260429T12Z_MSC_GDPS_DewPointDepression_IsbL-0100_LatLon0.15_PT006H.grib2 2026-04-29 15:56 420K
20260429T12Z_MSC_GDPS_DewPointDepression_IsbL-0150_LatLon0.15_PT006H.grib2 2026-04-29 15:56 473K
20260429T12Z_MSC_GDPS_DewPointDepression_IsbL-0175_LatLon0.15_PT006H.grib2 2026-04-29 15:56 567K
20260429T12Z_MSC_GDPS_DewPointDepression_IsbL-0200_LatLon0.15_PT006H.grib2 2026-04-29 15:56 690K
20260429T12Z_MSC_GDPS_DewPointDepression_IsbL-0225_LatLon0.15_PT006H.grib2 2026-04-29 15:56 808K
20260429T12Z_MSC_GDPS_DewPointDepression_IsbL-0250_LatLon0.15_PT006H.grib2 2026-04-29 15:56 893K
20260429T12Z_MSC_GDPS_DewPointDepression_IsbL-0275_LatLon0.15_PT006H.grib2 2026-04-29 15:56 906K
20260429T12Z_MSC_GDPS_DewPointDepression_IsbL-0300_LatLon0.15_PT006H.grib2 2026-04-29 15:56 944K
20260429T12Z_MSC_GDPS_DewPointDepression_IsbL-0350_LatLon0.15_PT006H.grib2 2026-04-29 15:56 965K
20260429T12Z_MSC_GDPS_DewPointDepression_IsbL-0400_LatLon0.15_PT006H.grib2 2026-04-29 15:56 1.0M
20260429T12Z_MSC_GDPS_DewPointDepression_IsbL-0450_LatLon0.15_PT006H.grib2 2026-04-29 15:56 1.0M
20260429T12Z_MSC_GDPS_DewPointDepression_IsbL-0500_LatLon0.15_PT006H.grib2 2026-04-29 15:56 1.0M
20260429T12Z_MSC_GDPS_DewPointDepression_IsbL-0550_LatLon0.15_PT006H.grib2 2026-04-29 15:56 1.0M
20260429T12Z_MSC_GDPS_DewPointDepression_IsbL-0600_LatLon0.15_PT006H.grib2 2026-04-29 15:56 1.0M
20260429T12Z_MSC_GDPS_DewPointDepression_IsbL-0650_LatLon0.15_PT006H.grib2 2026-04-29 15:56 1.1M
20260429T12Z_MSC_GDPS_DewPointDepression_IsbL-0700_LatLon0.15_PT006H.grib2 2026-04-29 15:56 1.1M
20260429T12Z_MSC_GDPS_DewPointDepression_IsbL-0750_LatLon0.15_PT006H.grib2 2026-04-29 15:56 1.1M
20260429T12Z_MSC_GDPS_DewPointDepression_IsbL-0800_LatLon0.15_PT006H.grib2 2026-04-29 15:56 1.2M
20260429T12Z_MSC_GDPS_DewPointDepression_IsbL-0850_LatLon0.15_PT006H.grib2 2026-04-29 15:56 1.1M
20260429T12Z_MSC_GDPS_DewPointDepression_IsbL-0875_LatLon0.15_PT006H.grib2 2026-04-29 15:56 1.1M
20260429T12Z_MSC_GDPS_DewPointDepression_IsbL-0900_LatLon0.15_PT006H.grib2 2026-04-29 15:56 1.1M
20260429T12Z_MSC_GDPS_DewPointDepression_IsbL-0925_LatLon0.15_PT006H.grib2 2026-04-29 15:56 1.0M
20260429T12Z_MSC_GDPS_DewPointDepression_IsbL-0950_LatLon0.15_PT006H.grib2 2026-04-29 15:56 1.0M
20260429T12Z_MSC_GDPS_DewPointDepression_IsbL-0970_LatLon0.15_PT006H.grib2 2026-04-29 15:56 1.0M
20260429T12Z_MSC_GDPS_DewPointDepression_IsbL-0985_LatLon0.15_PT006H.grib2 2026-04-29 15:56 1.0M
20260429T12Z_MSC_GDPS_DewPointDepression_IsbL-1000_LatLon0.15_PT006H.grib2 2026-04-29 15:56 1.0M
20260429T12Z_MSC_GDPS_DewPointDepression_IsbL-1015_LatLon0.15_PT006H.grib2 2026-04-29 15:56 922K
20260429T12Z_MSC_GDPS_DewPoint_AGL-2m_LatLon0.15_PT006H.grib2 2026-04-29 15:56 611K
20260429T12Z_MSC_GDPS_DownwardLongwaveRadiationFlux-Accum_Sfc_LatLon0.15_PT006H.grib2 2026-04-29 15:56 1.1M
20260429T12Z_MSC_GDPS_DownwardShortwaveRadiationFlux-Accum_NTAtm_LatLon0.15_PT006H.grib2 2026-04-29 15:56 222K
20260429T12Z_MSC_GDPS_DownwardShortwaveRadiationFlux-Accum_Sfc_LatLon0.15_PT006H.grib2 2026-04-29 15:56 798K
20260429T12Z_MSC_GDPS_FreezingRain-Accum1h_Sfc_LatLon0.15_PT006H.grib2 2026-04-29 15:56 42K
20260429T12Z_MSC_GDPS_FreezingRain-Accum3h_Sfc_LatLon0.15_PT006H.grib2 2026-04-29 15:56 53K
20260429T12Z_MSC_GDPS_FreezingRain-Accum6h_Sfc_LatLon0.15_PT006H.grib2 2026-04-29 15:56 80K
20260429T12Z_MSC_GDPS_FreezingRain-Accum_Sfc_LatLon0.15_PT006H.grib2 2026-04-29 15:56 93K
20260429T12Z_MSC_GDPS_GeopotentialHeight_IsbL-0001_LatLon0.15_PT006H.grib2 2026-04-29 15:56 392K
20260429T12Z_MSC_GDPS_GeopotentialHeight_IsbL-0005_LatLon0.15_PT006H.grib2 2026-04-29 15:56 501K
20260429T12Z_MSC_GDPS_GeopotentialHeight_IsbL-0010_LatLon0.15_PT006H.grib2 2026-04-29 15:56 484K
20260429T12Z_MSC_GDPS_GeopotentialHeight_IsbL-0020_LatLon0.15_PT006H.grib2 2026-04-29 15:56 425K
20260429T12Z_MSC_GDPS_GeopotentialHeight_IsbL-0030_LatLon0.15_PT006H.grib2 2026-04-29 15:56 582K
20260429T12Z_MSC_GDPS_GeopotentialHeight_IsbL-0050_LatLon0.15_PT006H.grib2 2026-04-29 15:56 581K
20260429T12Z_MSC_GDPS_GeopotentialHeight_IsbL-0100_LatLon0.15_PT006H.grib2 2026-04-29 15:56 615K
20260429T12Z_MSC_GDPS_GeopotentialHeight_IsbL-0150_LatLon0.15_PT006H.grib2 2026-04-29 15:56 636K
20260429T12Z_MSC_GDPS_GeopotentialHeight_IsbL-0175_LatLon0.15_PT006H.grib2 2026-04-29 15:56 483K
20260429T12Z_MSC_GDPS_GeopotentialHeight_IsbL-0200_LatLon0.15_PT006H.grib2 2026-04-29 15:56 487K
20260429T12Z_MSC_GDPS_GeopotentialHeight_IsbL-0225_LatLon0.15_PT006H.grib2 2026-04-29 15:56 650K
20260429T12Z_MSC_GDPS_GeopotentialHeight_IsbL-0250_LatLon0.15_PT006H.grib2 2026-04-29 15:56 653K
20260429T12Z_MSC_GDPS_GeopotentialHeight_IsbL-0275_LatLon0.15_PT006H.grib2 2026-04-29 15:56 651K
20260429T12Z_MSC_GDPS_GeopotentialHeight_IsbL-0300_LatLon0.15_PT006H.grib2 2026-04-29 15:56 643K
20260429T12Z_MSC_GDPS_GeopotentialHeight_IsbL-0350_LatLon0.15_PT006H.grib2 2026-04-29 15:56 640K
20260429T12Z_MSC_GDPS_GeopotentialHeight_IsbL-0400_LatLon0.15_PT006H.grib2 2026-04-29 15:56 632K
20260429T12Z_MSC_GDPS_GeopotentialHeight_IsbL-0450_LatLon0.15_PT006H.grib2 2026-04-29 15:56 623K
20260429T12Z_MSC_GDPS_GeopotentialHeight_IsbL-0500_LatLon0.15_PT006H.grib2 2026-04-29 15:56 608K
20260429T12Z_MSC_GDPS_GeopotentialHeight_IsbL-0550_LatLon0.15_PT006H.grib2 2026-04-29 15:56 533K
20260429T12Z_MSC_GDPS_GeopotentialHeight_IsbL-0600_LatLon0.15_PT006H.grib2 2026-04-29 15:56 529K
20260429T12Z_MSC_GDPS_GeopotentialHeight_IsbL-0650_LatLon0.15_PT006H.grib2 2026-04-29 15:56 526K
20260429T12Z_MSC_GDPS_GeopotentialHeight_IsbL-0700_LatLon0.15_PT006H.grib2 2026-04-29 15:56 696K
20260429T12Z_MSC_GDPS_GeopotentialHeight_IsbL-0750_LatLon0.15_PT006H.grib2 2026-04-29 15:56 695K
20260429T12Z_MSC_GDPS_GeopotentialHeight_IsbL-0800_LatLon0.15_PT006H.grib2 2026-04-29 15:56 707K
20260429T12Z_MSC_GDPS_GeopotentialHeight_IsbL-0850_LatLon0.15_PT006H.grib2 2026-04-29 15:56 715K
20260429T12Z_MSC_GDPS_GeopotentialHeight_IsbL-0875_LatLon0.15_PT006H.grib2 2026-04-29 15:56 719K
20260429T12Z_MSC_GDPS_GeopotentialHeight_IsbL-0900_LatLon0.15_PT006H.grib2 2026-04-29 15:56 724K
20260429T12Z_MSC_GDPS_GeopotentialHeight_IsbL-0925_LatLon0.15_PT006H.grib2 2026-04-29 15:56 732K
20260429T12Z_MSC_GDPS_GeopotentialHeight_IsbL-0950_LatLon0.15_PT006H.grib2 2026-04-29 15:56 740K
20260429T12Z_MSC_GDPS_GeopotentialHeight_IsbL-0970_LatLon0.15_PT006H.grib2 2026-04-29 15:56 752K
20260429T12Z_MSC_GDPS_GeopotentialHeight_IsbL-0985_LatLon0.15_PT006H.grib2 2026-04-29 15:56 770K
20260429T12Z_MSC_GDPS_GeopotentialHeight_IsbL-1000_LatLon0.15_PT006H.grib2 2026-04-29 15:56 791K
20260429T12Z_MSC_GDPS_GeopotentialHeight_IsbL-1015_LatLon0.15_PT006H.grib2 2026-04-29 15:56 810K
20260429T12Z_MSC_GDPS_Humidex_Sfc_LatLon0.15_PT006H.grib2 2026-04-29 15:56 5.3M
20260429T12Z_MSC_GDPS_IcePellets-Accum1h_Sfc_LatLon0.15_PT006H.grib2 2026-04-29 15:56 4.2K
20260429T12Z_MSC_GDPS_IcePellets-Accum3h_Sfc_LatLon0.15_PT006H.grib2 2026-04-29 15:56 5.2K
20260429T12Z_MSC_GDPS_IcePellets-Accum6h_Sfc_LatLon0.15_PT006H.grib2 2026-04-29 15:56 8.8K
20260429T12Z_MSC_GDPS_IcePellets-Accum_Sfc_LatLon0.15_PT006H.grib2 2026-04-29 15:56 9.5K
20260429T12Z_MSC_GDPS_KIndex_Sfc_LatLon0.15_PT006H.grib2 2026-04-29 15:56 6.5M
20260429T12Z_MSC_GDPS_LatentHeatNetFlux_Sfc_LatLon0.15_PT006H.grib2 2026-04-29 15:56 514K
20260429T12Z_MSC_GDPS_LiftedIndex-MU-VT_IsbL-0500_LatLon0.15_PT006H.grib2 2026-04-29 15:56 5.3M
20260429T12Z_MSC_GDPS_NetLongwaveRadiationFlux-Accum_Sfc_LatLon0.15_PT006H.grib2 2026-04-29 15:56 1.1M
20260429T12Z_MSC_GDPS_NetShortwaveRadiationFlux-Accum_Sfc_LatLon0.15_PT006H.grib2 2026-04-29 15:56 753K
20260429T12Z_MSC_GDPS_O3MixingRatio_Sfc_LatLon0.15_PT006H.grib2 2026-04-29 16:49 2.1M
20260429T12Z_MSC_GDPS_O3_EAtm_LatLon0.15_PT006H.grib2 2026-04-29 16:49 2.5M
20260429T12Z_MSC_GDPS_PlanetaryBoundaryLayerHeight_Sfc_LatLon0.15_PT006H.grib2 2026-04-29 15:56 2.5M
20260429T12Z_MSC_GDPS_Precip-Accum1h_Sfc_LatLon0.15_PT006H.grib2 2026-04-29 15:56 3.2M
20260429T12Z_MSC_GDPS_Precip-Accum3h_Sfc_LatLon0.15_PT006H.grib2 2026-04-29 15:56 3.5M
20260429T12Z_MSC_GDPS_Precip-Accum6h_Sfc_LatLon0.15_PT006H.grib2 2026-04-29 15:56 3.6M
20260429T12Z_MSC_GDPS_Precip-Accum_Sfc_LatLon0.15_PT006H.grib2 2026-04-29 15:56 3.7M
20260429T12Z_MSC_GDPS_PrecipRate_Sfc_LatLon0.15_PT006H.grib2 2026-04-29 15:56 2.9M
20260429T12Z_MSC_GDPS_PrecipType-Instant_Sfc_LatLon0.15_PT006H.grib2 2026-04-29 15:56 1.6M
20260429T12Z_MSC_GDPS_Pressure_MSL_LatLon0.15_PT006H.grib2 2026-04-29 15:56 728K
20260429T12Z_MSC_GDPS_Pressure_PVU-1.5_LatLon0.15_PT006H.grib2 2026-04-29 15:56 5.8M
20260429T12Z_MSC_GDPS_Pressure_PVU-1_LatLon0.15_PT006H.grib2 2026-04-29 15:56 6.0M
20260429T12Z_MSC_GDPS_Pressure_PVU-2_LatLon0.15_PT006H.grib2 2026-04-29 15:56 5.6M
20260429T12Z_MSC_GDPS_Pressure_Sfc_LatLon0.15_PT006H.grib2 2026-04-29 15:56 1.1M
20260429T12Z_MSC_GDPS_RadiativeTemp_Sfc_LatLon0.15_PT006H.grib2 2026-04-29 15:56 488K
20260429T12Z_MSC_GDPS_Rain-Accum1h_Sfc_LatLon0.15_PT006H.grib2 2026-04-29 15:56 1.5M
20260429T12Z_MSC_GDPS_Rain-Accum3h_Sfc_LatLon0.15_PT006H.grib2 2026-04-29 15:56 1.8M
20260429T12Z_MSC_GDPS_Rain-Accum6h_Sfc_LatLon0.15_PT006H.grib2 2026-04-29 15:56 2.3M
20260429T12Z_MSC_GDPS_Rain-Accum_Sfc_LatLon0.15_PT006H.grib2 2026-04-29 15:56 2.6M
20260429T12Z_MSC_GDPS_RelativeHumidity_AGL-2m_LatLon0.15_PT006H.grib2 2026-04-29 15:56 1.1M
20260429T12Z_MSC_GDPS_RelativeHumidity_IsbL-0010_LatLon0.15_PT006H.grib2 2026-04-29 15:56 203K
20260429T12Z_MSC_GDPS_RelativeHumidity_IsbL-0020_LatLon0.15_PT006H.grib2 2026-04-29 15:56 251K
20260429T12Z_MSC_GDPS_RelativeHumidity_IsbL-0030_LatLon0.15_PT006H.grib2 2026-04-29 15:56 273K
20260429T12Z_MSC_GDPS_RelativeHumidity_IsbL-0050_LatLon0.15_PT006H.grib2 2026-04-29 15:56 335K
20260429T12Z_MSC_GDPS_RelativeHumidity_IsbL-0100_LatLon0.15_PT006H.grib2 2026-04-29 15:56 519K
20260429T12Z_MSC_GDPS_RelativeHumidity_IsbL-0150_LatLon0.15_PT006H.grib2 2026-04-29 15:56 674K
20260429T12Z_MSC_GDPS_RelativeHumidity_IsbL-0175_LatLon0.15_PT006H.grib2 2026-04-29 15:56 785K
20260429T12Z_MSC_GDPS_RelativeHumidity_IsbL-0200_LatLon0.15_PT006H.grib2 2026-04-29 15:56 702K
20260429T12Z_MSC_GDPS_RelativeHumidity_IsbL-0225_LatLon0.15_PT006H.grib2 2026-04-29 15:56 793K
20260429T12Z_MSC_GDPS_RelativeHumidity_IsbL-0250_LatLon0.15_PT006H.grib2 2026-04-29 15:56 871K
20260429T12Z_MSC_GDPS_RelativeHumidity_IsbL-0275_LatLon0.15_PT006H.grib2 2026-04-29 15:56 892K
20260429T12Z_MSC_GDPS_RelativeHumidity_IsbL-0300_LatLon0.15_PT006H.grib2 2026-04-29 15:56 933K
20260429T12Z_MSC_GDPS_RelativeHumidity_IsbL-0350_LatLon0.15_PT006H.grib2 2026-04-29 15:56 953K
20260429T12Z_MSC_GDPS_RelativeHumidity_IsbL-0400_LatLon0.15_PT006H.grib2 2026-04-29 15:56 1.0M
20260429T12Z_MSC_GDPS_RelativeHumidity_IsbL-0450_LatLon0.15_PT006H.grib2 2026-04-29 15:56 1.0M
20260429T12Z_MSC_GDPS_RelativeHumidity_IsbL-0500_LatLon0.15_PT006H.grib2 2026-04-29 15:56 1.0M
20260429T12Z_MSC_GDPS_RelativeHumidity_IsbL-0550_LatLon0.15_PT006H.grib2 2026-04-29 15:56 1.1M
20260429T12Z_MSC_GDPS_RelativeHumidity_IsbL-0600_LatLon0.15_PT006H.grib2 2026-04-29 15:56 1.1M
20260429T12Z_MSC_GDPS_RelativeHumidity_IsbL-0650_LatLon0.15_PT006H.grib2 2026-04-29 15:56 1.1M
20260429T12Z_MSC_GDPS_RelativeHumidity_IsbL-0700_LatLon0.15_PT006H.grib2 2026-04-29 15:56 1.1M
20260429T12Z_MSC_GDPS_RelativeHumidity_IsbL-0750_LatLon0.15_PT006H.grib2 2026-04-29 15:56 1.2M
20260429T12Z_MSC_GDPS_RelativeHumidity_IsbL-0800_LatLon0.15_PT006H.grib2 2026-04-29 15:56 1.3M
20260429T12Z_MSC_GDPS_RelativeHumidity_IsbL-0850_LatLon0.15_PT006H.grib2 2026-04-29 15:56 1.3M
20260429T12Z_MSC_GDPS_RelativeHumidity_IsbL-0875_LatLon0.15_PT006H.grib2 2026-04-29 15:56 1.3M
20260429T12Z_MSC_GDPS_RelativeHumidity_IsbL-0900_LatLon0.15_PT006H.grib2 2026-04-29 15:56 1.2M
20260429T12Z_MSC_GDPS_RelativeHumidity_IsbL-0925_LatLon0.15_PT006H.grib2 2026-04-29 15:56 1.2M
20260429T12Z_MSC_GDPS_RelativeHumidity_IsbL-0950_LatLon0.15_PT006H.grib2 2026-04-29 15:56 1.2M
20260429T12Z_MSC_GDPS_RelativeHumidity_IsbL-0970_LatLon0.15_PT006H.grib2 2026-04-29 15:56 1.2M
20260429T12Z_MSC_GDPS_RelativeHumidity_IsbL-0985_LatLon0.15_PT006H.grib2 2026-04-29 15:56 1.2M
20260429T12Z_MSC_GDPS_RelativeHumidity_IsbL-1000_LatLon0.15_PT006H.grib2 2026-04-29 15:56 1.1M
20260429T12Z_MSC_GDPS_RelativeHumidity_IsbL-1015_LatLon0.15_PT006H.grib2 2026-04-29 15:56 1.1M
20260429T12Z_MSC_GDPS_RelativeVorticity_IsbL-0200_LatLon0.15_PT006H.grib2 2026-04-29 15:56 1.3M
20260429T12Z_MSC_GDPS_RelativeVorticity_IsbL-0250_LatLon0.15_PT006H.grib2 2026-04-29 15:56 1.3M
20260429T12Z_MSC_GDPS_RelativeVorticity_IsbL-0500_LatLon0.15_PT006H.grib2 2026-04-29 15:56 1.2M
20260429T12Z_MSC_GDPS_RelativeVorticity_IsbL-0700_LatLon0.15_PT006H.grib2 2026-04-29 15:56 1.3M
20260429T12Z_MSC_GDPS_RelativeVorticity_IsbL-0850_LatLon0.15_PT006H.grib2 2026-04-29 15:56 1.6M
20260429T12Z_MSC_GDPS_Runoff-Accum_Sfc_LatLon0.15_PT006H.grib2 2026-04-29 15:56 55K
20260429T12Z_MSC_GDPS_SensibleHeatNetFlux_Sfc_LatLon0.15_PT006H.grib2 2026-04-29 15:56 465K
20260429T12Z_MSC_GDPS_ShowalterIndex_IsbL-0500_LatLon0.15_PT006H.grib2 2026-04-29 15:56 6.2M
20260429T12Z_MSC_GDPS_Snow-Accum1h_Sfc_LatLon0.15_PT006H.grib2 2026-04-29 15:56 1.2M
20260429T12Z_MSC_GDPS_Snow-Accum3h_Sfc_LatLon0.15_PT006H.grib2 2026-04-29 15:56 1.1M
20260429T12Z_MSC_GDPS_Snow-Accum6h_Sfc_LatLon0.15_PT006H.grib2 2026-04-29 15:56 1.5M
20260429T12Z_MSC_GDPS_Snow-Accum_Sfc_LatLon0.15_PT006H.grib2 2026-04-29 15:56 1.7M
20260429T12Z_MSC_GDPS_SnowDensity_Sfc_LatLon0.15_PT006H.grib2 2026-04-29 15:56 251K
20260429T12Z_MSC_GDPS_SnowDepth_Sfc_LatLon0.15_PT006H.grib2 2026-04-29 15:56 1.7M
20260429T12Z_MSC_GDPS_SoilTemp_DBS-0to10cm_LatLon0.15_PT006H.grib2 2026-04-29 15:56 495K
20260429T12Z_MSC_GDPS_SoilTemp_Sfc_LatLon0.15_PT006H.grib2 2026-04-29 15:56 577K
20260429T12Z_MSC_GDPS_SoilVolumetricIceContent_Sfc_LatLon0.15_PT006H.grib2 2026-04-29 15:56 209K
20260429T12Z_MSC_GDPS_SoilVolumetricWaterContent_DBS-0to10cm_LatLon0.15_PT006H.grib2 2026-04-29 15:56 581K
20260429T12Z_MSC_GDPS_SoilVolumetricWaterContent_DBS-0to1cm_LatLon0.15_PT006H.grib2 2026-04-29 15:56 644K
20260429T12Z_MSC_GDPS_SpecificHumidity_AGL-120m_LatLon0.15_PT006H.grib2 2026-04-29 15:56 1.1M
20260429T12Z_MSC_GDPS_SpecificHumidity_AGL-2m_LatLon0.15_PT006H.grib2 2026-04-29 15:56 1.2M
20260429T12Z_MSC_GDPS_SpecificHumidity_AGL-40m_LatLon0.15_PT006H.grib2 2026-04-29 15:56 1.1M
20260429T12Z_MSC_GDPS_SpecificHumidity_AGL-80m_LatLon0.15_PT006H.grib2 2026-04-29 15:56 1.1M
20260429T12Z_MSC_GDPS_SpecificHumidity_IsbL-0001_LatLon0.15_PT006H.grib2 2026-04-29 15:56 1.4M
20260429T12Z_MSC_GDPS_SpecificHumidity_IsbL-0005_LatLon0.15_PT006H.grib2 2026-04-29 15:56 1.3M
20260429T12Z_MSC_GDPS_SpecificHumidity_IsbL-0010_LatLon0.15_PT006H.grib2 2026-04-29 15:56 1.4M
20260429T12Z_MSC_GDPS_SpecificHumidity_IsbL-0020_LatLon0.15_PT006H.grib2 2026-04-29 15:56 1.4M
20260429T12Z_MSC_GDPS_SpecificHumidity_IsbL-0030_LatLon0.15_PT006H.grib2 2026-04-29 15:56 1.4M
20260429T12Z_MSC_GDPS_SpecificHumidity_IsbL-0050_LatLon0.15_PT006H.grib2 2026-04-29 15:56 1.7M
20260429T12Z_MSC_GDPS_SpecificHumidity_IsbL-0100_LatLon0.15_PT006H.grib2 2026-04-29 15:56 1.1M
20260429T12Z_MSC_GDPS_SpecificHumidity_IsbL-0150_LatLon0.15_PT006H.grib2 2026-04-29 15:56 1.0M
20260429T12Z_MSC_GDPS_SpecificHumidity_IsbL-0175_LatLon0.15_PT006H.grib2 2026-04-29 15:56 1.3M
20260429T12Z_MSC_GDPS_SpecificHumidity_IsbL-0200_LatLon0.15_PT006H.grib2 2026-04-29 15:56 1.3M
20260429T12Z_MSC_GDPS_SpecificHumidity_IsbL-0225_LatLon0.15_PT006H.grib2 2026-04-29 15:56 1.3M
20260429T12Z_MSC_GDPS_SpecificHumidity_IsbL-0250_LatLon0.15_PT006H.grib2 2026-04-29 15:56 1.4M
20260429T12Z_MSC_GDPS_SpecificHumidity_IsbL-0275_LatLon0.15_PT006H.grib2 2026-04-29 15:56 1.3M
20260429T12Z_MSC_GDPS_SpecificHumidity_IsbL-0300_LatLon0.15_PT006H.grib2 2026-04-29 15:56 1.2M
20260429T12Z_MSC_GDPS_SpecificHumidity_IsbL-0350_LatLon0.15_PT006H.grib2 2026-04-29 15:56 1.5M
20260429T12Z_MSC_GDPS_SpecificHumidity_IsbL-0400_LatLon0.15_PT006H.grib2 2026-04-29 15:56 1.5M
20260429T12Z_MSC_GDPS_SpecificHumidity_IsbL-0450_LatLon0.15_PT006H.grib2 2026-04-29 15:56 1.6M
20260429T12Z_MSC_GDPS_SpecificHumidity_IsbL-0500_LatLon0.15_PT006H.grib2 2026-04-29 15:56 1.4M
20260429T12Z_MSC_GDPS_SpecificHumidity_IsbL-0550_LatLon0.15_PT006H.grib2 2026-04-29 15:56 1.6M
20260429T12Z_MSC_GDPS_SpecificHumidity_IsbL-0600_LatLon0.15_PT006H.grib2 2026-04-29 15:56 1.7M
20260429T12Z_MSC_GDPS_SpecificHumidity_IsbL-0650_LatLon0.15_PT006H.grib2 2026-04-29 15:56 1.5M
20260429T12Z_MSC_GDPS_SpecificHumidity_IsbL-0700_LatLon0.15_PT006H.grib2 2026-04-29 15:56 1.6M
20260429T12Z_MSC_GDPS_SpecificHumidity_IsbL-0750_LatLon0.15_PT006H.grib2 2026-04-29 15:56 1.7M
20260429T12Z_MSC_GDPS_SpecificHumidity_IsbL-0800_LatLon0.15_PT006H.grib2 2026-04-29 15:56 1.8M
20260429T12Z_MSC_GDPS_SpecificHumidity_IsbL-0850_LatLon0.15_PT006H.grib2 2026-04-29 15:56 1.9M
20260429T12Z_MSC_GDPS_SpecificHumidity_IsbL-0875_LatLon0.15_PT006H.grib2 2026-04-29 15:56 1.9M
20260429T12Z_MSC_GDPS_SpecificHumidity_IsbL-0900_LatLon0.15_PT006H.grib2 2026-04-29 15:56 1.9M
20260429T12Z_MSC_GDPS_SpecificHumidity_IsbL-0925_LatLon0.15_PT006H.grib2 2026-04-29 15:56 1.6M
20260429T12Z_MSC_GDPS_SpecificHumidity_IsbL-0950_LatLon0.15_PT006H.grib2 2026-04-29 15:56 1.6M
20260429T12Z_MSC_GDPS_SpecificHumidity_IsbL-0970_LatLon0.15_PT006H.grib2 2026-04-29 15:56 1.5M
20260429T12Z_MSC_GDPS_SpecificHumidity_IsbL-0985_LatLon0.15_PT006H.grib2 2026-04-29 15:56 1.5M
20260429T12Z_MSC_GDPS_SpecificHumidity_IsbL-1000_LatLon0.15_PT006H.grib2 2026-04-29 15:56 1.5M
20260429T12Z_MSC_GDPS_SpecificHumidity_IsbL-1015_LatLon0.15_PT006H.grib2 2026-04-29 15:56 1.4M
20260429T12Z_MSC_GDPS_SpecificHumidity_Sfc_LatLon0.15_PT006H.grib2 2026-04-29 15:56 659K
20260429T12Z_MSC_GDPS_Thickness_IsbL-0850to0700_LatLon0.15_PT006H.grib2 2026-04-29 15:56 476K
20260429T12Z_MSC_GDPS_Thickness_IsbL-1000to0500_LatLon0.15_PT006H.grib2 2026-04-29 15:56 379K
20260429T12Z_MSC_GDPS_Thickness_IsbL-1000to0850_LatLon0.15_PT006H.grib2 2026-04-29 15:56 494K
20260429T12Z_MSC_GDPS_TotalCloudCover_Sfc_LatLon0.15_PT006H.grib2 2026-04-29 15:56 828K
20260429T12Z_MSC_GDPS_TotalTotalsIndex_Sfc_LatLon0.15_PT006H.grib2 2026-04-29 15:56 6.2M
20260429T12Z_MSC_GDPS_UVIndex-ClearSky-Max24h_Sfc_LatLon0.15_PT006H.grib2 2026-04-29 16:49 2.2M
20260429T12Z_MSC_GDPS_UVIndex-ClearSky_Sfc_LatLon0.15_PT006H.grib2 2026-04-29 16:49 1.0M
20260429T12Z_MSC_GDPS_UVIndex-Max24h_Sfc_LatLon0.15_PT006H.grib2 2026-04-29 16:49 3.2M
20260429T12Z_MSC_GDPS_UVIndex_Sfc_LatLon0.15_PT006H.grib2 2026-04-29 16:49 1.5M
20260429T12Z_MSC_GDPS_UpwardLongwaveRadiationFlux_NTAtm_LatLon0.15_PT006H.grib2 2026-04-29 15:56 842K
20260429T12Z_MSC_GDPS_VerticalVelocity_IsbL-0200_LatLon0.15_PT006H.grib2 2026-04-29 15:56 943K
20260429T12Z_MSC_GDPS_VerticalVelocity_IsbL-0250_LatLon0.15_PT006H.grib2 2026-04-29 15:56 1.1M
20260429T12Z_MSC_GDPS_VerticalVelocity_IsbL-0500_LatLon0.15_PT006H.grib2 2026-04-29 15:56 1.0M
20260429T12Z_MSC_GDPS_VerticalVelocity_IsbL-0600_LatLon0.15_PT006H.grib2 2026-04-29 15:56 1.1M
20260429T12Z_MSC_GDPS_VerticalVelocity_IsbL-0700_LatLon0.15_PT006H.grib2 2026-04-29 15:56 1.1M
20260429T12Z_MSC_GDPS_VerticalVelocity_IsbL-0850_LatLon0.15_PT006H.grib2 2026-04-29 15:56 1.3M
20260429T12Z_MSC_GDPS_WindChill_Sfc_LatLon0.15_PT006H.grib2 2026-04-29 15:56 5.3M
20260429T12Z_MSC_GDPS_WindDir_AGL-10m_LatLon0.15_PT006H.grib2 2026-04-29 15:56 1.3M
20260429T12Z_MSC_GDPS_WindDir_AGL-120m_LatLon0.15_PT006H.grib2 2026-04-29 15:56 1.4M
20260429T12Z_MSC_GDPS_WindDir_AGL-40m_LatLon0.15_PT006H.grib2 2026-04-29 15:56 1.4M
20260429T12Z_MSC_GDPS_WindDir_AGL-80m_LatLon0.15_PT006H.grib2 2026-04-29 15:56 1.4M
20260429T12Z_MSC_GDPS_WindDir_IsbL-0001_LatLon0.15_PT006H.grib2 2026-04-29 15:56 669K
20260429T12Z_MSC_GDPS_WindDir_IsbL-0005_LatLon0.15_PT006H.grib2 2026-04-29 15:56 802K
20260429T12Z_MSC_GDPS_WindDir_IsbL-0010_LatLon0.15_PT006H.grib2 2026-04-29 15:56 847K
20260429T12Z_MSC_GDPS_WindDir_IsbL-0020_LatLon0.15_PT006H.grib2 2026-04-29 15:56 941K
20260429T12Z_MSC_GDPS_WindDir_IsbL-0030_LatLon0.15_PT006H.grib2 2026-04-29 15:56 926K
20260429T12Z_MSC_GDPS_WindDir_IsbL-0050_LatLon0.15_PT006H.grib2 2026-04-29 15:56 959K
20260429T12Z_MSC_GDPS_WindDir_IsbL-0100_LatLon0.15_PT006H.grib2 2026-04-29 15:56 1.0M
20260429T12Z_MSC_GDPS_WindDir_IsbL-0150_LatLon0.15_PT006H.grib2 2026-04-29 15:56 1.0M
20260429T12Z_MSC_GDPS_WindDir_IsbL-0175_LatLon0.15_PT006H.grib2 2026-04-29 15:56 1.0M
20260429T12Z_MSC_GDPS_WindDir_IsbL-0200_LatLon0.15_PT006H.grib2 2026-04-29 15:56 1.1M
20260429T12Z_MSC_GDPS_WindDir_IsbL-0225_LatLon0.15_PT006H.grib2 2026-04-29 15:56 1.1M
20260429T12Z_MSC_GDPS_WindDir_IsbL-0250_LatLon0.15_PT006H.grib2 2026-04-29 15:56 1.1M
20260429T12Z_MSC_GDPS_WindDir_IsbL-0275_LatLon0.15_PT006H.grib2 2026-04-29 15:56 1.2M
20260429T12Z_MSC_GDPS_WindDir_IsbL-0300_LatLon0.15_PT006H.grib2 2026-04-29 15:56 1.2M
20260429T12Z_MSC_GDPS_WindDir_IsbL-0350_LatLon0.15_PT006H.grib2 2026-04-29 15:56 1.2M
20260429T12Z_MSC_GDPS_WindDir_IsbL-0400_LatLon0.15_PT006H.grib2 2026-04-29 15:56 1.3M
20260429T12Z_MSC_GDPS_WindDir_IsbL-0450_LatLon0.15_PT006H.grib2 2026-04-29 15:56 1.3M
20260429T12Z_MSC_GDPS_WindDir_IsbL-0500_LatLon0.15_PT006H.grib2 2026-04-29 15:56 1.3M
20260429T12Z_MSC_GDPS_WindDir_IsbL-0550_LatLon0.15_PT006H.grib2 2026-04-29 15:56 1.4M
20260429T12Z_MSC_GDPS_WindDir_IsbL-0600_LatLon0.15_PT006H.grib2 2026-04-29 15:56 1.5M
20260429T12Z_MSC_GDPS_WindDir_IsbL-0650_LatLon0.15_PT006H.grib2 2026-04-29 15:56 1.5M
20260429T12Z_MSC_GDPS_WindDir_IsbL-0700_LatLon0.15_PT006H.grib2 2026-04-29 15:56 1.6M
20260429T12Z_MSC_GDPS_WindDir_IsbL-0750_LatLon0.15_PT006H.grib2 2026-04-29 15:56 1.7M
20260429T12Z_MSC_GDPS_WindDir_IsbL-0800_LatLon0.15_PT006H.grib2 2026-04-29 15:56 1.8M
20260429T12Z_MSC_GDPS_WindDir_IsbL-0850_LatLon0.15_PT006H.grib2 2026-04-29 15:56 1.9M
20260429T12Z_MSC_GDPS_WindDir_IsbL-0875_LatLon0.15_PT006H.grib2 2026-04-29 15:56 2.0M
20260429T12Z_MSC_GDPS_WindDir_IsbL-0900_LatLon0.15_PT006H.grib2 2026-04-29 15:56 2.0M
20260429T12Z_MSC_GDPS_WindDir_IsbL-0925_LatLon0.15_PT006H.grib2 2026-04-29 15:56 2.0M
20260429T12Z_MSC_GDPS_WindDir_IsbL-0950_LatLon0.15_PT006H.grib2 2026-04-29 15:56 2.0M
20260429T12Z_MSC_GDPS_WindDir_IsbL-0970_LatLon0.15_PT006H.grib2 2026-04-29 15:56 2.0M
20260429T12Z_MSC_GDPS_WindDir_IsbL-0985_LatLon0.15_PT006H.grib2 2026-04-29 15:56 2.0M
20260429T12Z_MSC_GDPS_WindDir_IsbL-1000_LatLon0.15_PT006H.grib2 2026-04-29 15:56 2.1M
20260429T12Z_MSC_GDPS_WindDir_IsbL-1015_LatLon0.15_PT006H.grib2 2026-04-29 15:56 2.1M
20260429T12Z_MSC_GDPS_WindGust-Max_AGL-10m_LatLon0.15_PT006H.grib2 2026-04-29 15:56 2.2M
20260429T12Z_MSC_GDPS_WindGust-Min_AGL-10m_LatLon0.15_PT006H.grib2 2026-04-29 15:56 2.1M
20260429T12Z_MSC_GDPS_WindGust_AGL-10m_LatLon0.15_PT006H.grib2 2026-04-29 15:56 2.1M
20260429T12Z_MSC_GDPS_WindSpeed_AGL-10m_LatLon0.15_PT006H.grib2 2026-04-29 15:56 1.1M
20260429T12Z_MSC_GDPS_WindSpeed_AGL-120m_LatLon0.15_PT006H.grib2 2026-04-29 15:56 1.3M
20260429T12Z_MSC_GDPS_WindSpeed_AGL-40m_LatLon0.15_PT006H.grib2 2026-04-29 15:56 1.3M
20260429T12Z_MSC_GDPS_WindSpeed_AGL-80m_LatLon0.15_PT006H.grib2 2026-04-29 15:56 1.3M
20260429T12Z_MSC_GDPS_WindSpeed_IsbL-0001_LatLon0.15_PT006H.grib2 2026-04-29 15:56 649K
20260429T12Z_MSC_GDPS_WindSpeed_IsbL-0005_LatLon0.15_PT006H.grib2 2026-04-29 15:56 704K
20260429T12Z_MSC_GDPS_WindSpeed_IsbL-0010_LatLon0.15_PT006H.grib2 2026-04-29 15:56 640K
20260429T12Z_MSC_GDPS_WindSpeed_IsbL-0020_LatLon0.15_PT006H.grib2 2026-04-29 15:56 678K
20260429T12Z_MSC_GDPS_WindSpeed_IsbL-0030_LatLon0.15_PT006H.grib2 2026-04-29 15:56 876K
20260429T12Z_MSC_GDPS_WindSpeed_IsbL-0050_LatLon0.15_PT006H.grib2 2026-04-29 15:56 920K
20260429T12Z_MSC_GDPS_WindSpeed_IsbL-0100_LatLon0.15_PT006H.grib2 2026-04-29 15:56 1.1M
20260429T12Z_MSC_GDPS_WindSpeed_IsbL-0150_LatLon0.15_PT006H.grib2 2026-04-29 15:56 1.0M
20260429T12Z_MSC_GDPS_WindSpeed_IsbL-0175_LatLon0.15_PT006H.grib2 2026-04-29 15:56 1.0M
20260429T12Z_MSC_GDPS_WindSpeed_IsbL-0200_LatLon0.15_PT006H.grib2 2026-04-29 15:56 1.1M
20260429T12Z_MSC_GDPS_WindSpeed_IsbL-0225_LatLon0.15_PT006H.grib2 2026-04-29 15:56 1.1M
20260429T12Z_MSC_GDPS_WindSpeed_IsbL-0250_LatLon0.15_PT006H.grib2 2026-04-29 15:56 1.1M
20260429T12Z_MSC_GDPS_WindSpeed_IsbL-0275_LatLon0.15_PT006H.grib2 2026-04-29 15:56 1.1M
20260429T12Z_MSC_GDPS_WindSpeed_IsbL-0300_LatLon0.15_PT006H.grib2 2026-04-29 15:56 1.1M
20260429T12Z_MSC_GDPS_WindSpeed_IsbL-0350_LatLon0.15_PT006H.grib2 2026-04-29 15:56 1.1M
20260429T12Z_MSC_GDPS_WindSpeed_IsbL-0400_LatLon0.15_PT006H.grib2 2026-04-29 15:56 1.1M
20260429T12Z_MSC_GDPS_WindSpeed_IsbL-0450_LatLon0.15_PT006H.grib2 2026-04-29 15:56 1.1M
20260429T12Z_MSC_GDPS_WindSpeed_IsbL-0500_LatLon0.15_PT006H.grib2 2026-04-29 15:56 1.1M
20260429T12Z_MSC_GDPS_WindSpeed_IsbL-0550_LatLon0.15_PT006H.grib2 2026-04-29 15:56 1.1M
20260429T12Z_MSC_GDPS_WindSpeed_IsbL-0600_LatLon0.15_PT006H.grib2 2026-04-29 15:56 1.1M
20260429T12Z_MSC_GDPS_WindSpeed_IsbL-0650_LatLon0.15_PT006H.grib2 2026-04-29 15:56 1.5M
20260429T12Z_MSC_GDPS_WindSpeed_IsbL-0700_LatLon0.15_PT006H.grib2 2026-04-29 15:56 1.5M
20260429T12Z_MSC_GDPS_WindSpeed_IsbL-0750_LatLon0.15_PT006H.grib2 2026-04-29 15:56 1.6M
20260429T12Z_MSC_GDPS_WindSpeed_IsbL-0800_LatLon0.15_PT006H.grib2 2026-04-29 15:56 1.7M
20260429T12Z_MSC_GDPS_WindSpeed_IsbL-0850_LatLon0.15_PT006H.grib2 2026-04-29 15:56 1.8M
20260429T12Z_MSC_GDPS_WindSpeed_IsbL-0875_LatLon0.15_PT006H.grib2 2026-04-29 15:56 1.8M
20260429T12Z_MSC_GDPS_WindSpeed_IsbL-0900_LatLon0.15_PT006H.grib2 2026-04-29 15:56 1.8M
20260429T12Z_MSC_GDPS_WindSpeed_IsbL-0925_LatLon0.15_PT006H.grib2 2026-04-29 15:56 1.8M
20260429T12Z_MSC_GDPS_WindSpeed_IsbL-0950_LatLon0.15_PT006H.grib2 2026-04-29 15:56 1.9M
20260429T12Z_MSC_GDPS_WindSpeed_IsbL-0970_LatLon0.15_PT006H.grib2 2026-04-29 15:56 1.9M
20260429T12Z_MSC_GDPS_WindSpeed_IsbL-0985_LatLon0.15_PT006H.grib2 2026-04-29 15:56 1.9M
20260429T12Z_MSC_GDPS_WindSpeed_IsbL-1000_LatLon0.15_PT006H.grib2 2026-04-29 15:56 1.9M
20260429T12Z_MSC_GDPS_WindSpeed_IsbL-1015_LatLon0.15_PT006H.grib2 2026-04-29 15:56 1.8M
20260429T12Z_MSC_GDPS_WindU_AGL-10m_LatLon0.15_PT006H.grib2 2026-04-29 15:56 1.3M
20260429T12Z_MSC_GDPS_WindU_AGL-120m_LatLon0.15_PT006H.grib2 2026-04-29 15:56 1.0M
20260429T12Z_MSC_GDPS_WindU_AGL-40m_LatLon0.15_PT006H.grib2 2026-04-29 15:56 1.0M
20260429T12Z_MSC_GDPS_WindU_AGL-80m_LatLon0.15_PT006H.grib2 2026-04-29 15:56 1.0M
20260429T12Z_MSC_GDPS_WindU_IsbL-0001_LatLon0.15_PT006H.grib2 2026-04-29 15:56 507K
20260429T12Z_MSC_GDPS_WindU_IsbL-0005_LatLon0.15_PT006H.grib2 2026-04-29 15:56 705K
20260429T12Z_MSC_GDPS_WindU_IsbL-0010_LatLon0.15_PT006H.grib2 2026-04-29 15:56 716K
20260429T12Z_MSC_GDPS_WindU_IsbL-0020_LatLon0.15_PT006H.grib2 2026-04-29 15:56 745K
20260429T12Z_MSC_GDPS_WindU_IsbL-0030_LatLon0.15_PT006H.grib2 2026-04-29 15:56 753K
20260429T12Z_MSC_GDPS_WindU_IsbL-0050_LatLon0.15_PT006H.grib2 2026-04-29 15:56 782K
20260429T12Z_MSC_GDPS_WindU_IsbL-0100_LatLon0.15_PT006H.grib2 2026-04-29 15:56 930K
20260429T12Z_MSC_GDPS_WindU_IsbL-0150_LatLon0.15_PT006H.grib2 2026-04-29 15:56 1.0M
20260429T12Z_MSC_GDPS_WindU_IsbL-0175_LatLon0.15_PT006H.grib2 2026-04-29 15:56 1.0M
20260429T12Z_MSC_GDPS_WindU_IsbL-0200_LatLon0.15_PT006H.grib2 2026-04-29 15:56 850K
20260429T12Z_MSC_GDPS_WindU_IsbL-0225_LatLon0.15_PT006H.grib2 2026-04-29 15:56 860K
20260429T12Z_MSC_GDPS_WindU_IsbL-0250_LatLon0.15_PT006H.grib2 2026-04-29 15:56 861K
20260429T12Z_MSC_GDPS_WindU_IsbL-0275_LatLon0.15_PT006H.grib2 2026-04-29 15:56 889K
20260429T12Z_MSC_GDPS_WindU_IsbL-0300_LatLon0.15_PT006H.grib2 2026-04-29 15:56 881K
20260429T12Z_MSC_GDPS_WindU_IsbL-0350_LatLon0.15_PT006H.grib2 2026-04-29 15:56 898K
20260429T12Z_MSC_GDPS_WindU_IsbL-0400_LatLon0.15_PT006H.grib2 2026-04-29 15:56 901K
20260429T12Z_MSC_GDPS_WindU_IsbL-0450_LatLon0.15_PT006H.grib2 2026-04-29 15:56 904K
20260429T12Z_MSC_GDPS_WindU_IsbL-0500_LatLon0.15_PT006H.grib2 2026-04-29 15:56 908K
20260429T12Z_MSC_GDPS_WindU_IsbL-0550_LatLon0.15_PT006H.grib2 2026-04-29 15:56 1.1M
20260429T12Z_MSC_GDPS_WindU_IsbL-0600_LatLon0.15_PT006H.grib2 2026-04-29 15:56 1.2M
20260429T12Z_MSC_GDPS_WindU_IsbL-0650_LatLon0.15_PT006H.grib2 2026-04-29 15:56 1.2M
20260429T12Z_MSC_GDPS_WindU_IsbL-0700_LatLon0.15_PT006H.grib2 2026-04-29 15:56 1.2M
20260429T12Z_MSC_GDPS_WindU_IsbL-0750_LatLon0.15_PT006H.grib2 2026-04-29 15:56 1.3M
20260429T12Z_MSC_GDPS_WindU_IsbL-0800_LatLon0.15_PT006H.grib2 2026-04-29 15:56 1.4M
20260429T12Z_MSC_GDPS_WindU_IsbL-0850_LatLon0.15_PT006H.grib2 2026-04-29 15:56 1.4M
20260429T12Z_MSC_GDPS_WindU_IsbL-0875_LatLon0.15_PT006H.grib2 2026-04-29 15:56 1.5M
20260429T12Z_MSC_GDPS_WindU_IsbL-0900_LatLon0.15_PT006H.grib2 2026-04-29 15:56 1.5M
20260429T12Z_MSC_GDPS_WindU_IsbL-0925_LatLon0.15_PT006H.grib2 2026-04-29 15:56 1.5M
20260429T12Z_MSC_GDPS_WindU_IsbL-0950_LatLon0.15_PT006H.grib2 2026-04-29 15:56 1.4M
20260429T12Z_MSC_GDPS_WindU_IsbL-0970_LatLon0.15_PT006H.grib2 2026-04-29 15:56 1.4M
20260429T12Z_MSC_GDPS_WindU_IsbL-0985_LatLon0.15_PT006H.grib2 2026-04-29 15:56 1.4M
20260429T12Z_MSC_GDPS_WindU_IsbL-1000_LatLon0.15_PT006H.grib2 2026-04-29 15:56 1.4M
20260429T12Z_MSC_GDPS_WindU_IsbL-1015_LatLon0.15_PT006H.grib2 2026-04-29 15:56 1.4M
20260429T12Z_MSC_GDPS_WindV_AGL-10m_LatLon0.15_PT006H.grib2 2026-04-29 15:56 1.3M
20260429T12Z_MSC_GDPS_WindV_AGL-120m_LatLon0.15_PT006H.grib2 2026-04-29 15:56 1.0M
20260429T12Z_MSC_GDPS_WindV_AGL-40m_LatLon0.15_PT006H.grib2 2026-04-29 15:56 1.0M
20260429T12Z_MSC_GDPS_WindV_AGL-80m_LatLon0.15_PT006H.grib2 2026-04-29 15:56 1.0M
20260429T12Z_MSC_GDPS_WindV_IsbL-0001_LatLon0.15_PT006H.grib2 2026-04-29 15:56 718K
20260429T12Z_MSC_GDPS_WindV_IsbL-0005_LatLon0.15_PT006H.grib2 2026-04-29 15:56 868K
20260429T12Z_MSC_GDPS_WindV_IsbL-0010_LatLon0.15_PT006H.grib2 2026-04-29 15:56 807K
20260429T12Z_MSC_GDPS_WindV_IsbL-0020_LatLon0.15_PT006H.grib2 2026-04-29 15:56 862K
20260429T12Z_MSC_GDPS_WindV_IsbL-0030_LatLon0.15_PT006H.grib2 2026-04-29 15:56 864K
20260429T12Z_MSC_GDPS_WindV_IsbL-0050_LatLon0.15_PT006H.grib2 2026-04-29 15:56 916K
20260429T12Z_MSC_GDPS_WindV_IsbL-0100_LatLon0.15_PT006H.grib2 2026-04-29 15:56 1.1M
20260429T12Z_MSC_GDPS_WindV_IsbL-0150_LatLon0.15_PT006H.grib2 2026-04-29 15:56 1.0M
20260429T12Z_MSC_GDPS_WindV_IsbL-0175_LatLon0.15_PT006H.grib2 2026-04-29 15:56 1.0M
20260429T12Z_MSC_GDPS_WindV_IsbL-0200_LatLon0.15_PT006H.grib2 2026-04-29 15:56 848K
20260429T12Z_MSC_GDPS_WindV_IsbL-0225_LatLon0.15_PT006H.grib2 2026-04-29 15:56 855K
20260429T12Z_MSC_GDPS_WindV_IsbL-0250_LatLon0.15_PT006H.grib2 2026-04-29 15:56 916K
20260429T12Z_MSC_GDPS_WindV_IsbL-0275_LatLon0.15_PT006H.grib2 2026-04-29 15:56 941K
20260429T12Z_MSC_GDPS_WindV_IsbL-0300_LatLon0.15_PT006H.grib2 2026-04-29 15:56 932K
20260429T12Z_MSC_GDPS_WindV_IsbL-0350_LatLon0.15_PT006H.grib2 2026-04-29 15:56 888K
20260429T12Z_MSC_GDPS_WindV_IsbL-0400_LatLon0.15_PT006H.grib2 2026-04-29 15:56 890K
20260429T12Z_MSC_GDPS_WindV_IsbL-0450_LatLon0.15_PT006H.grib2 2026-04-29 15:56 893K
20260429T12Z_MSC_GDPS_WindV_IsbL-0500_LatLon0.15_PT006H.grib2 2026-04-29 15:56 1.1M
20260429T12Z_MSC_GDPS_WindV_IsbL-0550_LatLon0.15_PT006H.grib2 2026-04-29 15:56 1.1M
20260429T12Z_MSC_GDPS_WindV_IsbL-0600_LatLon0.15_PT006H.grib2 2026-04-29 15:56 1.1M
20260429T12Z_MSC_GDPS_WindV_IsbL-0650_LatLon0.15_PT006H.grib2 2026-04-29 15:56 1.2M
20260429T12Z_MSC_GDPS_WindV_IsbL-0700_LatLon0.15_PT006H.grib2 2026-04-29 15:56 1.2M
20260429T12Z_MSC_GDPS_WindV_IsbL-0750_LatLon0.15_PT006H.grib2 2026-04-29 15:56 1.2M
20260429T12Z_MSC_GDPS_WindV_IsbL-0800_LatLon0.15_PT006H.grib2 2026-04-29 15:56 1.3M
20260429T12Z_MSC_GDPS_WindV_IsbL-0850_LatLon0.15_PT006H.grib2 2026-04-29 15:56 1.4M
20260429T12Z_MSC_GDPS_WindV_IsbL-0875_LatLon0.15_PT006H.grib2 2026-04-29 15:56 1.5M
20260429T12Z_MSC_GDPS_WindV_IsbL-0900_LatLon0.15_PT006H.grib2 2026-04-29 15:56 1.5M
20260429T12Z_MSC_GDPS_WindV_IsbL-0925_LatLon0.15_PT006H.grib2 2026-04-29 15:56 1.5M
20260429T12Z_MSC_GDPS_WindV_IsbL-0950_LatLon0.15_PT006H.grib2 2026-04-29 15:56 1.4M
20260429T12Z_MSC_GDPS_WindV_IsbL-0970_LatLon0.15_PT006H.grib2 2026-04-29 15:56 1.4M
20260429T12Z_MSC_GDPS_WindV_IsbL-0985_LatLon0.15_PT006H.grib2 2026-04-29 15:56 1.4M
20260429T12Z_MSC_GDPS_WindV_IsbL-1000_LatLon0.15_PT006H.grib2 2026-04-29 15:56 1.4M
20260429T12Z_MSC_GDPS_WindV_IsbL-1015_LatLon0.15_PT006H.grib2 2026-04-29 15:56 1.4M